N7QNM-13 Weather Reports


time (UTC)temp
C
wind
direction
speed
KPH
gust
KPH
rain 1hr
cm
rain 24hr
cm
rain mn
cm
humidity
%
barometer
mb
20260904214019 22 356 6.4 9.7 0.00 0.00 0.00 42 1012.8
20260904213020 22 41 8.0 12.9 0.00 0.00 0.00 43 1012.7
20260904212019 22 61 6.4 11.3 0.00 0.00 0.00 43 1012.7
20260904211019 22 40 8.0 12.9 0.00 0.00 0.00 42 1012.7
20260904210019 22 36 6.4 11.3 0.00 0.00 0.00 43 1012.7
20260904205101 22 28 9.7 17.7 0.00 0.00 0.00 44 1012.7
20260904204019 22 39 8.0 12.9 0.00 0.00 0.00 42 1012.8
20260904203020 21 37 8.0 12.9 0.00 0.00 0.00 45 1012.9
20260904202020 21 41 8.0 11.3 0.00 0.00 0.00 46 1013.0
20260904201020 20 50 6.4 9.7 0.00 0.00 0.00 48 1013.0
20260904200020 20 5 4.8 6.4 0.00 0.00 0.00 48 1013.0
20260904195020 21 43 6.4 12.9 0.00 0.00 0.00 47 1013.1
20260904194022 20 43 8.0 11.3 0.00 0.00 0.00 48 1013.1
20260904193020 21 56 4.8 12.9 0.00 0.00 0.00 48 1013.2
20260904192022 20 351 4.8 8.0 0.00 0.00 0.00 48 1013.3
20260904191020 20 59 3.2 4.8 0.00 0.00 0.00 48 1013.4
20260904190022 20 19 8.0 11.3 0.00 0.00 0.00 49 1013.5
20260904185021 20 11 3.2 4.8 0.00 0.00 0.00 47 1013.7
20260904184021 21 46 3.2 6.4 0.00 0.00 0.00 45 1013.6
20260904183021 21 41 4.8 9.7 0.00 0.00 0.00 44 1013.6
20260904182021 21 270 4.8 6.4 0.00 0.00 0.00 43 1013.5
20260904181023 21 274 3.2 4.8 0.00 0.00 0.00 43 1013.4
20260904180043 21 66 3.2 8.0 0.00 0.00 0.00 45 1013.4
20260904175022 20 300 6.4 9.7 0.00 0.00 0.00 47 1013.2
20260904174021 20 336 6.4 8.0 0.00 0.00 0.00 46 1013.2
20260904173022 20 284 4.8 8.0 0.00 0.00 0.00 47 1013.2
20260904172044 20 291 1.6 4.8 0.00 0.00 0.00 50 1013.2
20260904171023 18 307 4.8 6.4 0.00 0.00 0.00 54 1013.4
20260904170022 17 280 3.2 6.4 0.00 0.00 0.00 56 1013.3
20260904165024 17 270 4.8 6.4 0.00 0.00 0.00 58 1013.3
20260904164022 17 300 6.4 9.7 0.00 0.00 0.00 60 1013.4
20260904163023 16 279 4.8 8.0 0.00 0.00 0.00 62 1013.4
20260904162023 16 261 6.4 9.7 0.00 0.00 0.00 63 1013.4
20260904161022 15 257 4.8 8.0 0.00 0.00 0.00 66 1013.4
20260904160023 14 262 4.8 8.0 0.00 0.00 0.00 72 1013.4
20260904155024 12 296 3.2 4.8 0.00 0.00 0.00 78 1013.3
20260904154025 12 272 4.8 6.4 0.00 0.00 0.00 81 1013.4
20260904153023 11 296 3.2 4.8 0.00 0.00 0.00 84 1013.3
20260904152025 11 0.0 0.0 0.00 0.00 0.00 86 1013.2
20260904151025 11 319 1.6 3.2 0.00 0.00 0.00 88 1013.2
20260904150023 11 257 3.2 3.2 0.00 0.00 0.00 89 1013.1
20260904145023 11 276 1.6 3.2 0.00 0.00 0.00 90 1013.2
20260904144045 11 270 3.2 6.4 0.00 0.00 0.00 91 1013.1
20260904143024 10 263 3.2 8.0 0.00 0.00 0.00 92 1013.0
20260904142025 10 270 0.0 3.2 0.00 0.00 0.00 92 1012.8
20260904141024 10 266 3.2 4.8 0.00 0.00 0.00 92 1012.7
20260904140026 9 235 3.2 4.8 0.00 0.00 0.00 92 1012.4
20260904135024 8 0.0 0.0 0.00 0.00 0.00 91 1012.3
20260904134026 8 0.0 0.0 0.00 0.00 0.00 91 1012.1
20260904133024 8 0.0 0.0 0.00 0.00 0.00 91 1011.9
20260904132045 8 0.0 0.0 0.00 0.00 0.00 91 1011.9
20260904131026 8 0.0 0.0 0.00 0.00 0.00 91 1011.8
20260904130026 8 0.0 0.0 0.00 0.00 0.00 91 1011.7
20260904125026 8 0.0 0.0 0.00 0.00 0.00 90 1011.6
20260904124025 8 0.0 0.0 0.00 0.00 0.00 90 1011.5
20260904123027 8 0.0 0.0 0.00 0.00 0.00 90 1011.5
20260904122025 8 0.0 0.0 0.00 0.00 0.00 90 1011.3
20260904121026 8 0.0 0.0 0.00 0.00 0.00 90 1011.3
20260904120027 8 0.0 0.0 0.00 0.00 0.00 90 1011.2
20260904115026 8 0.0 0.0 0.00 0.00 0.00 90 1011.1
20260904114026 8 0.0 0.0 0.00 0.00 0.00 89 1011.1
20260904113026 8 0.0 0.0 0.00 0.00 0.00 89 1011.0
20260904112028 8 0.0 0.0 0.00 0.00 0.00 89 1011.0
20260904111026 8 0.0 0.0 0.00 0.00 0.00 89 1010.9
20260904110026 7 0.0 0.0 0.00 0.00 0.00 88 1010.8
20260904105028 7 0.0 0.0 0.00 0.00 0.00 88 1010.7
20260904104028 7 0.0 0.0 0.00 0.00 0.00 88 1010.6
20260904103028 7 0.0 0.0 0.00 0.00 0.00 87 1010.6
20260904102026 7 0.0 0.0 0.00 0.00 0.00 87 1010.4
20260904101048 7 0.0 0.0 0.00 0.00 0.00 86 1010.3
20260904100027 7 0.0 0.0 0.00 0.00 0.00 86 1010.2
20260904095049 7 0.0 0.0 0.00 0.00 0.00 85 1010.1
20260904094029 7 0.0 0.0 0.00 0.00 0.00 85 1010.1
20260904093029 7 0.0 0.0 0.00 0.00 0.00 84 1010.1
20260904092047 7 0.0 0.0 0.00 0.00 0.00 84 1010.1
20260904091028 8 0.0 0.0 0.00 0.00 0.00 84 1010.0
20260904090028 8 0.0 0.0 0.00 0.00 0.00 83 1010.0
20260904085027 8 0.0 0.0 0.00 0.00 0.00 83 1010.1
20260904084030 8 184 3.2 4.8 0.00 0.00 0.00 83 1010.1
20260904083032 8 173 3.2 4.8 0.00 0.00 0.00 83 1010.1
20260904082049 8 198 1.6 3.2 0.00 0.00 0.00 82 1010.1
20260904081028 8 180 0.0 3.2 0.00 0.00 0.00 81 1009.9
20260904080028 9 286 1.6 4.8 0.00 0.00 0.00 81 1009.9
20260904075029 9 261 1.6 4.8 0.00 0.00 0.00 80 1010.0
20260904074030 10 0.0 0.0 0.00 0.00 0.00 79 1009.9
20260904073028 10 0.0 0.0 0.00 0.00 0.00 78 1009.9
20260904072030 10 0.0 0.0 0.00 0.00 0.00 78 1009.9
20260904071029 10 0.0 0.0 0.00 0.00 0.00 77 1009.9
20260904070030 10 0.0 0.0 0.00 0.00 0.00 75 1009.8
20260904065034 10 90 0.0 1.6 0.00 0.00 0.00 72 1009.8
20260904064031 11 113 0.0 1.6 0.00 0.00 0.00 70 1009.7
20260904063029 11 0.0 0.0 0.00 0.00 0.00 69 1009.8
20260904062051 11 180 3.2 4.8 0.00 0.00 0.00 69 1009.7
20260904060029 12 178 3.2 4.8 0.00 0.03 0.00 67 1009.7
20260904055050 12 154 3.2 6.4 0.00 0.03 0.00 65 1009.6
20260904054030 13 0.0 0.0 0.00 0.05 0.00 62 1009.6
20260904053030 13 188 4.8 6.4 0.00 0.05 0.00 60 1009.6
20260904052052 14 72 3.2 4.8 0.00 0.05 0.00 59 1009.7
20260904051030 15 167 1.6 3.2 0.00 0.05 0.00 55 1009.6
20260904050030 16 226 3.2 4.8 0.00 0.05 0.00 54 1009.7
20260904045032 16 241 4.8 8.0 0.00 0.08 0.00 53 1009.6
20260904044030 16 267 4.8 8.0 0.00 0.08 0.00 52 1009.6
20260904043031 16 194 4.8 9.7 0.00 0.10 0.00 52 1009.4
20260904042031 16 230 9.7 20.9 0.00 0.10 0.00 53 1009.3
20260904041031 17 295 8.0 12.9 0.00 0.13 0.00 52 1009.4
20260904040031 17 180 14.5 17.7 0.00 0.15 0.00 50 1008.8
20260904035031 17 162 12.9 17.7 0.00 0.15 0.00 49 1008.7
20260904034033 17 154 16.1 19.3 0.00 0.18 0.00 48 1008.6
20260904033031 17 160 16.1 24.1 0.00 0.18 0.00 47 1008.4
20260904032053 17 137 17.7 20.9 0.00 0.18 0.00 47 1008.4
20260904031033 17 166 17.7 24.1 0.00 0.18 0.00 46 1008.3
20260904030034 18 154 14.5 19.3 0.00 0.20 0.00 46 1008.2
20260904025052 18 162 12.9 17.7 0.00 0.20 0.00 45 1008.1
20260904024032 18 162 16.1 19.3 0.00 0.23 0.00 45 1008.0
20260904023032 19 155 14.5 16.1 0.00 0.25 0.00 44 1007.9
20260904022054 20 160 17.7 22.5 0.00 0.25 0.00 42 1007.9
20260904021032 21 139 16.1 19.3 0.00 0.28 0.00 40 1008.0
20260904020114 21 143 14.5 19.3 0.00 0.28 0.00 38 1008.0
20260904015053 21 138 9.7 14.5 0.00 0.28 0.00 36 1008.1
20260904014034 21 141 11.3 17.7 0.00 0.30 0.00 35 1008.1
20260904013034 21 150 12.9 16.1 0.00 0.30 0.00 36 1008.1
20260904012035 21 154 11.3 12.9 0.00 0.33 0.00 37 1008.1
20260904011033 21 167 12.9 17.7 0.00 0.36 0.00 37 1008.1
20260904010033 20 165 11.3 14.5 0.00 0.38 0.00 37 1008.1
20260904005035 20 149 12.9 17.7 0.00 0.41 0.00 37 1008.1
20260904004035 20 157 9.7 16.1 0.00 0.43 0.00 36 1008.2
20260904003033 20 164 9.7 12.9 0.00 0.48 0.00 36 1008.2
20260904002035 20 197 11.3 17.7 0.00 0.51 0.00 36 1008.2
20260904001034 21 176 12.9 17.7 0.00 0.56 0.00 35 1008.4
20260904000034 21 165 11.3 17.7 0.00 0.58 0.00 35 1008.4
20260903235036 21 174 11.3 12.9 0.00 0.61 0.00 36 1008.5
20260903234054 21 183 9.7 16.1 0.00 0.64 0.00 35 1008.5
20260903233034 22 176 12.9 22.5 0.00 0.64 0.00 34 1008.5
20260903232036 21 180 11.3 14.5 0.00 0.66 0.00 37 1008.5
20260903231034 21 184 11.3 16.1 0.00 0.69 0.00 36 1008.6
20260903230055 21 204 9.7 19.3 0.00 0.69 0.00 36 1008.6
20260903225034 22 169 14.5 17.7 0.00 0.69 0.00 36 1008.7
20260903224035 22 160 14.5 22.5 0.00 0.69 0.00 35 1008.9
20260903223035 22 182 14.5 25.7 0.00 0.69 0.00 36 1008.8
20260903222035 22 166 12.9 17.7 0.00 0.69 0.00 36 1008.9
20260903221057 22 235 9.7 16.1 0.00 0.69 0.00 36 1008.9
20260903220035 22 187 11.3 16.1 0.00 0.69 0.00 36 1008.9
20260903215036 21 182 14.5 17.7 0.00 0.69 0.00 37 1009.0